History for Miami, FL

Friday, November 2, 2012 — View Current Conditions

Jump to Data:

Date:
Airport Code:
Recently Viewed Airport Codes: KMIA
Daily Summary
  Actual Average Record
Temperature
Mean Temperature 72°F 77°F  
Max Temperature 81°F 84°F 89°F (1997)
Min Temperature 63°F 70°F 52°F (2014)
Degree Days
Heating Degree Days 0 0  
Month to date heating degree days 0 0  
Since 1 July heating degree days 0 0  
Cooling Degree Days 7 12  
Month to date cooling degree days 12 24  
Year to date cooling degree days 4251 4096  
Growing Degree Days 22 (Base 50)    
Moisture
Dew Point 58°F    
Average Humidity 59    
Maximum Humidity 87    
Minimum Humidity 30    
Precipitation
Precipitation 0.00 in 0.14 in 2.02 in (1925)
Month to date precipitation 0.00 0.28  
Year to date precipitation 85.93 56.87  
Snow
Snow 0.00 in in in ()
Month to date snowfall 0.0  
Since 1 July snowfall 0.0  
Since 1 September snowfall 0.0  
Snow Depth 0.00 in    
Sea Level Pressure
Sea Level Pressure 30.06 in    
Wind
Wind Speed 4 mph (WNW)    
Max Wind Speed 12 mph    
Max Gust Speed 16 mph    
Visibility 10 miles    
Events      
T = Trace of Precipitation, MM = Missing Value Source: NWS Daily Summary

Show full METARS

(help) - Comma Delimited File

Hourly Observations

Time(EDT) Temperature Dew Point Humidity Sea Level Pressure Visibility Wind Direction Wind Speed Gust Speed Precipitation Events Conditions
12:53 AM 68.0°F 64.0°F 87% 30.06 in 10.0 miles SSW 3.5 mph - N/A   Partly Cloudy
1:53 AM 68.0°F 64.0°F 87% 30.05 in 10.0 miles SW 4.6 mph - N/A   Scattered Clouds
2:53 AM 68.0°F 64.0°F 87% 30.04 in 10.0 miles WSW 4.6 mph - N/A   Partly Cloudy
3:53 AM 69.1°F 63.0°F 81% 30.03 in 10.0 miles WSW 4.6 mph - N/A   Clear
4:53 AM 69.1°F 64.0°F 84% 30.03 in 10.0 miles WSW 4.6 mph - N/A   Clear
5:53 AM 68.0°F 64.9°F 90% 30.04 in 10.0 miles SW 3.5 mph - N/A   Clear
6:53 AM 68.0°F 64.9°F 90% 30.05 in 10.0 miles Calm Calm - N/A   Scattered Clouds
7:53 AM 68.0°F 64.9°F 90% 30.06 in 10.0 miles WSW 4.6 mph - N/A   Scattered Clouds
8:53 AM 71.1°F 66.9°F 87% 30.07 in 10.0 miles West 4.6 mph - N/A   Scattered Clouds
9:53 AM 75.0°F 66.9°F 76% 30.09 in 10.0 miles Variable 6.9 mph - N/A   Scattered Clouds
10:53 AM 75.9°F 64.9°F 69% 30.10 in 10.0 miles NNW 6.9 mph - N/A   Scattered Clouds
11:53 AM 75.9°F 64.9°F 69% 30.09 in 10.0 miles Variable 4.6 mph - N/A   Scattered Clouds
12:53 PM 78.1°F 61.0°F 56% 30.07 in 10.0 miles North 6.9 mph - N/A   Partly Cloudy
1:53 PM 80.1°F 59.0°F 48% 30.04 in 10.0 miles Variable 3.5 mph - N/A   Partly Cloudy
2:53 PM 81.0°F 46.9°F 30% 30.03 in 10.0 miles WNW 8.1 mph - N/A   Partly Cloudy
3:53 PM 81.0°F 48.0°F 31% 30.03 in 10.0 miles Variable 3.5 mph - N/A   Partly Cloudy
4:53 PM 80.1°F 48.0°F 32% 30.03 in 10.0 miles NNW 6.9 mph - N/A   Partly Cloudy
5:53 PM 79.0°F 48.0°F 34% 30.04 in 10.0 miles NW 4.6 mph - N/A   Scattered Clouds
6:53 PM 77.0°F 46.9°F 34% 30.04 in 10.0 miles NNW 3.5 mph - N/A   Scattered Clouds
7:53 PM 75.9°F 46.9°F 36% 30.06 in 10.0 miles Calm Calm - N/A   Clear
8:53 PM 73.0°F 46.0°F 38% 30.07 in 10.0 miles North 4.6 mph - N/A   Clear
9:53 PM 71.1°F 46.0°F 41% 30.08 in 10.0 miles Calm Calm - N/A   Clear
10:53 PM 64.9°F 48.9°F 56% 30.08 in 10.0 miles Calm Calm - N/A   Clear
11:53 PM 64.9°F 48.9°F 56% 30.09 in 10.0 miles Calm Calm - N/A   Clear